Home   Weather   Brest   Past weeks

Flag for France Past Weather in Brest, Brittany, France — Yesterday and Last 2 Weeks

Now
37 °F

Clear.


Feels Like: 29 °F
Forecast: 27 / 42 °F
Wind: 13 mph from East

Location: Brest Airport

Current Time: Jan 19, 2017 at 8:27:43 pm

Latest Report: Jan 19, 2017 at 7:30 pm


Visibility: 10 mi

Pressure: 30.42 "Hg

Humidity: 65%

Dew Point: 27 °F

Location of BrestLocation

Past Weather in Brest — Graph

°F

Brest Temperature Yesterday

Maximum temperature yesterday: 41 °F (at 2:30 pm)
Minimum temperature yesterday: 27 °F (at 2:30 am)
Average temperature yesterday: 35 °F

High & Low Weather Summary for the Past Weeks

 TemperatureHumidityPressure
High54 °F (Jan 8, 2:00 pm)100% (Jan 8, 2:30 am)30.63 "Hg (Jan 8, 2:30 am)
Low27 °F (Jan 18, 2:30 am)46% (Jan 19, 1:00 pm)29.53 "Hg (Jan 12, 2:30 pm)
Average44 °F84%30.34 "Hg
* Reported Jan 4 7:00 pm — Jan 19 7:00 pm, Brest, Weather by CustomWeather, © 2017

Note: Actual official high and low records may vary slightly from our data, if they occured in-between our weather recording intervals... More about our weather records

Advertising

Brest Weather History for the Previous 24 Hours

Scroll right to see more
 ConditionsComfort  
Time TempWeatherWind HumidityBarometerVisibility
7:00 pm
Thu, Jan 19
37 °FClear.14 mph65%30.39 "Hg10 mi
6:30 pm39 °FClear.14 mph61%30.39 "Hg10 mi
6:00 pm39 °FClear.15 mph61%30.39 "Hg10 mi
5:30 pm41 °FSunny.13 mph57%30.39 "Hg10 mi
5:00 pm43 °FSunny.17 mph49%30.39 "Hg10 mi
4:30 pm45 °FSunny.13 mph46%30.39 "Hg10 mi
4:00 pm45 °FSunny.17 mph46%30.39 "Hg10 mi
3:30 pm45 °FSunny.20 mph46%30.42 "Hg10 mi
3:00 pm45 °FSunny.20 mph46%30.42 "Hg10 mi
2:30 pm45 °FSunny.20 mph46%30.42 "Hg10 mi
2:00 pm45 °FSunny.20 mph46%30.42 "Hg10 mi
1:30 pm45 °FSunny.20 mph46%30.45 "Hg10 mi
1:00 pm45 °FSunny.18 mph46%30.45 "Hg10 mi
12:30 pm45 °FSunny.18 mph53%30.45 "Hg10 mi
12:00 pm43 °FSunny.16 mph61%30.48 "Hg10 mi
11:30 am43 °FSunny.17 mph61%30.48 "Hg10 mi
11:00 am41 °FSunny.14 mph61%30.48 "Hg10 mi
10:30 am39 °FSunny.16 mph65%30.48 "Hg10 mi
10:00 am39 °FSunny.13 mph65%30.48 "Hg10 mi
9:30 am37 °FSunny.13 mph65%30.48 "Hg10 mi
9:00 am37 °FClear.9 mph65%30.48 "Hg10 mi
8:30 am37 °FClear.10 mph65%30.48 "Hg10 mi
8:00 am36 °FClear.9 mph75%30.48 "Hg10 mi
7:30 am36 °FClear.8 mph75%30.48 "Hg10 mi
7:00 am36 °FClear.7 mph75%30.48 "Hg10 mi
6:30 am36 °FClear.8 mph81%30.48 "Hg10 mi
6:00 am34 °FClear.8 mph81%30.48 "Hg10 mi
5:30 am36 °FClear.7 mph75%30.48 "Hg10 mi
5:00 am36 °FClear.12 mph75%30.48 "Hg10 mi
4:30 am36 °FChilly.10 mph75%30.48 "HgN/A
4:00 am37 °FClear.12 mph75%30.48 "Hg10 mi
3:30 am36 °FClear.10 mph81%30.48 "Hg10 mi
3:00 am36 °FClear.10 mph75%30.48 "Hg10 mi
2:30 am37 °FClear.12 mph70%30.51 "Hg10 mi
2:00 am37 °FClear.12 mph70%30.51 "Hg10 mi
1:30 am37 °FClear.9 mph70%30.51 "Hg10 mi
1:00 am37 °FClear.7 mph65%30.51 "Hg10 mi
12:30 am36 °FClear.7 mph70%30.51 "Hg10 mi
12:00 am36 °FClear.7 mph70%30.51 "Hg10 mi
11:30 pm
Wed, Jan 18
34 °FClear.7 mph75%30.51 "Hg10 mi
11:00 pm34 °FClear.8 mph75%30.51 "Hg10 mi
10:30 pm36 °FClear.10 mph75%30.54 "Hg10 mi
10:00 pm34 °FPassing clouds.9 mph75%30.54 "HgN/A
9:30 pm34 °FClear.7 mph81%30.54 "Hg10 mi
9:00 pm34 °FClear.6 mph81%30.54 "Hg10 mi
8:30 pm34 °FClear.6 mph81%30.54 "Hg10 mi
8:00 pm36 °FClear.8 mph75%30.54 "Hg10 mi
Weather by CustomWeather, © 2017

See weather overviewHow to use our weather pages